Voltar ao catálogo

FENGYUN 1C DEB

AtivoPO
NORAD 32137·DEBRIS·🇨🇳 China

Lançado May 10, 1999 de Taiyuan Satellite Launch Center

Loading…

Próximas Passagens (próximas 24 horas)

TLE

AtualizadoSource: Space-Track

Época: Sep 12, 2026, 04:28 UTC

1 32137U 99025CSF 26255.18612931  .00006999  00000-0  60986-3 0  9997
2 32137  98.4757  44.0048 0170886 233.1149 125.4299 14.86631854707878

Acompanhe FENGYUN 1C DEB em tempo real com AllMySat

Download on the App Store